Hourly Data Report for October 03, 2015

All times are specified in Local Standard Time (LST). Add 1 hour to adjust for Daylight Saving Time where and when it is observed.

ST LEONARD CS
NEW BRUNSWICK

47°09'28.050" N
67°49'55.014" W
245.00 m
810I001
71019
WIY

Download Data

Hourly Data (October 2015)
Hourly Data Report for October 3, 2015
Temp Definition
°C
Dew Point Temp Definition
°C
Rel Hum Definition
%
Wind Dir Definition
10's deg

Wind Spd Definition
km/h
Visibility Definition
km
Stn Press Definition
kPa
Hmdx Definition


Wind Chill Definition


Weather Definition


TIME
00:00 4.0 2.4 89 1 9   100.37     LegendNANA
01:00 2.9 1.6 91 36 6   100.38     LegendNANA
02:00 1.5 0.7 94 32 5   100.41     LegendNANA
03:00 0.9 0.4 96 32 8   100.44     LegendNANA
04:00 0.6 0.1 96 34 6   100.48     LegendNANA
05:00 -0.2 -0.6 97 33 8   100.50   -3 LegendNANA
06:00 -1.0 -1.3 98 33 5   100.53   -3 LegendNANA
07:00 -0.6 -0.9 98 33 4   100.58   -2 LegendNANA
08:00 1.4 0.3 92 32 4   100.60     LegendNANA
09:00 5.2 2.3 82 1 15   100.63     LegendNANA
10:00 7.4 2.2 69 2 13   100.65     LegendNANA
11:00 7.5 0.9 63 3 17   100.61     LegendNANA
12:00 9.5 2.1 60 2 14   100.61     LegendNANA
13:00 10.7 1.0 51 3 12   100.57     LegendNANA
14:00 10.6 0.1 48 2 12   100.57     LegendNANA
15:00 10.2 -1.1 45 1 13   100.54     LegendNANA
16:00 11.3 -0.4 44 1 14   100.53     LegendNANA
17:00 10.6 -0.6 46 36 10   100.50     LegendNANA
18:00 8.5 0.2 56 2 8   100.52     LegendNANA
19:00 6.1 0.7 68 35 10   100.57     LegendNANA
20:00 4.4 -0.4 71 36 8   100.58     LegendNANA
21:00 3.6 -0.8 73 1 9   100.57     LegendNANA
22:00 0.2 -2.0 85 31 8   100.57     LegendNANA
23:00 0.4 -1.2 89 36 6   100.57     LegendNANA

Notes on Data Quality.

Legend

  • E = Estimated
  • M = Missing
  • NA = Not Available
  • ‡ = Partner data that is not subject to review by the National Climate Archives
Date modified: